[[{"header":{"parameterUnit":"m.s-1","parameterCategory":1,"la1":30.2991,"la2":30.254,"lo1":-89.0895,"lo2":-89.0444,"dy":0.0017,"dx":0.0017,"nx":28,"ny":28,"refTime":"2023-09-03T21:00:00:Z","depth":0,"parameterNumber":2,"parameterNumberName":"U-component_of_WINDS"},"data":[0,0,0,0,0,0,0,0,0,0,0,0,0,0,0,0,0,0,0,0,0,0,0,0,0,0,0,0,0,0,0,0,0,0,0,0,0,0,0,0,0,0,0,0,0,0,0,0,0,0,0,0,0,0,0,0,0,0,-5.2888,-5.2889,0,-5.2956,-5.2957,-5.2957,-5.2883,-5.288,-5.2877,-5.2875,-5.294,-5.2944,-5.2949,0,0,0,0,0,0,0,0,0,0,0,0,0,-5.2691,-5.2695,-5.2888,-5.2889,-5.289,-5.2956,-5.2957,-5.2958,-5.2884,-5.288,-5.2877,-5.2873,-5.2939,-5.2944,-5.2949,0,0,0,0,0,0,0,0,0,0,0,0,0,-5.2769,-5.2696,-5.2888,-5.2861,-5.2859,-5.2956,-5.2957,-5.2958,-5.2884,-5.288,-5.2876,-5.2872,-5.2937,-5.2943,-5.295,-5.3075,0,0,-5.297,-5.2972,0,0,0,0,0,0,0,0,-5.2765,-5.2777,-5.2864,-5.2863,-5.2861,-5.2907,-5.2911,-5.2997,-5.2885,-5.2875,-5.2875,-5.287,-5.2932,-5.2939,-5.2961,-5.3078,-5.308,-5.297,-5.2974,-5.2977,-5.2979,0,0,0,0,0,0,0,-5.276,-5.2773,-5.2915,-5.2866,-5.2864,-5.2844,-5.2851,-5.2927,-5.2926,-5.2875,-5.287,-5.2879,-5.293,-5.2954,-5.2962,-5.3081,-5.297,-5.2976,-5.298,-5.2982,-5.3301,-5.3305,0,0,0,0,0,0,-5.2758,-5.2769,-5.2913,-5.2917,-5.2802,-5.2851,-5.2858,-5.2896,-5.2925,-5.2926,-5.2883,-5.2876,-5.2945,-5.2954,-5.2964,-5.3108,-5.2977,-5.2983,-5.2987,-5.3296,-5.3302,-5.3307,0,0,0,0,0,0,-5.2754,-5.2771,-5.291,-5.2842,-5.2858,-5.2859,-5.2902,-5.29,-5.2924,-5.2931,-5.293,-5.2908,-5.2942,-5.2954,-5.3047,-5.311,-5.2986,-5.2992,-5.3291,-5.3298,-5.3304,-5.3401,0,0,0,0,0,0,-5.2748,-5.277,-5.2819,-5.2843,-5.2862,-5.2994,-5.2906,-5.2904,-5.2936,-5.2927,-5.2954,-5.2954,-5.294,-5.3038,-5.3054,-5.3116,-5.2997,-5.3285,-5.3294,-5.3302,-5.3392,-5.341,-5.3426,0,0,0,0,0,-5.2742,-5.2843,-5.2822,-5.2839,-5.2923,-5.2998,-5.3008,-5.299,-5.2941,-5.2989,-5.2993,-5.2953,-5.3102,-5.3048,-5.3065,-5.3131,-5.3281,-5.3292,-5.3302,-5.3385,-5.3407,-5.3426,0,0,0,0,0,0,-5.2824,-5.2846,-5.2822,-5.2935,-5.2965,-5.2985,-5.3044,-5.3015,-5.3059,-5.3048,-5.3024,-5.3031,-5.3128,-5.314,-5.3079,-5.3252,-5.3183,-5.3197,-5.324,-5.3261,-5.3278,-5.3271,-5.3003,0,0,0,0,0,-5.2856,-5.2917,-5.2932,-5.303,-5.3046,-5.3043,-5.3075,-5.3059,-5.3089,-5.3101,-5.3112,-5.3141,-5.3194,-5.3229,-5.3278,-5.3395,-5.3398,-5.3449,-5.3466,-5.348,-5.3491,-5.355,-5.3571,-5.334,-5.334,-5.334,0,0,-5.2922,-5.2941,-5.298,-5.3047,-5.3068,-5.3129,-5.3054,-5.3123,-5.3167,-5.3111,-5.3198,-5.3208,-5.3239,-5.3343,-5.339,-5.3355,-5.3556,-5.3493,-5.3504,-5.3507,-5.3563,-5.3584,-5.3604,-5.3347,-5.3346,-5.3345,0,0,-5.3071,-5.3094,-5.3176,-5.3199,-5.3233,-5.323,-5.325,-5.3275,-5.3279,-5.3367,-5.3326,-5.3378,-5.347,-5.3493,-5.3517,-5.3675,-5.3639,-5.3692,-5.3778,-5.3837,-5.3855,-5.387,-5.3923,-5.3943,-5.3704,-5.3705,-5.3705,0,-5.3147,-5.3239,-5.3221,-5.3292,-5.3321,-5.3276,-5.3357,-5.3381,-5.3429,-5.3449,-5.3411,-5.3524,-5.3542,-5.365,-5.3688,-5.3711,-5.373,-5.3687,-5.3854,-5.387,-5.3884,-5.3934,-5.3954,-5.371,-5.371,-5.3709,-5.3709,0,-5.3329,-5.3393,-5.3455,-5.3503,-5.354,-5.3616,-5.3609,-5.3648,-5.363,-5.3631,-5.3719,-5.374,-5.3791,-5.3816,-5.3799,-5.3921,-5.3898,-5.3858,-5.3787,-5.3912,-5.3958,-5.3978,-5.3719,-5.3717,-5.3715,-5.3714,0,0,-5.3529,-5.3567,-5.359,-5.361,-5.3644,-5.3692,-5.3766,-5.3817,-5.385,-5.3885,-5.3944,-5.4023,-5.3986,-5.4013,-5.3998,-5.405,-5.4169,-5.4002,-5.4002,-5.4029,-5.43,-5.4327,-5.435,-5.4147,-5.4151,-5.4154,-5.4296,0,-5.3675,-5.3803,-5.379,-5.3911,-5.3968,-5.3926,-5.399,-5.4017,-5.402,-5.4068,-5.4071,-5.4126,-5.4075,-5.409,-5.414,-5.4144,-5.4222,-5.4134,-5.4198,-5.4201,-5.4187,-5.4375,-5.4404,-5.4537,-5.4315,-5.4318,-5.432,0,-5.3863,-5.3905,-5.4031,-5.4055,-5.4079,-5.4136,-5.4181,-5.4229,-5.4258,-5.4256,-5.4287,-5.4263,-5.4335,-5.4267,-5.4363,-5.4304,-5.433,-5.4336,-5.4341,-5.4342,-5.4264,-5.4377,-5.4579,-5.4598,-5.4349,-5.4347,-5.4345,0,-5.399,-5.4079,-5.4166,-5.4185,-5.4216,-5.4257,-5.4272,-5.4297,-5.4328,-5.4368,-5.4387,-5.4434,-5.4459,-5.4495,-5.4484,-5.4436,-5.4582,-5.4513,-5.4579,-5.458,-5.4608,-5.4606,-5.4813,-5.4633,-5.4633,-5.4632,-5.4632,0,-5.4153,-5.4231,-5.4223,-5.4276,-5.4361,-5.4346,-5.443,-5.444,-5.4463,-5.4515,-5.4483,-5.4532,-5.4517,-5.4565,-5.4557,-5.4636,-5.4649,-5.4647,-5.4643,-5.4647,-5.4647,-5.466,-5.4649,-5.4638,-5.4637,-5.4636,-5.4635,0,-5.4308,-5.4307,-5.4397,-5.442,-5.4428,-5.4489,-5.4507,-5.4556,-5.4558,-5.4624,-5.4639,-5.4641,-5.4696,-5.4689,-5.4751,-5.4745,-5.4842,-5.483,-5.4832,-5.4828,-5.4892,-5.4885,-5.5112,-5.5139,-5.4946,-5.4948,-5.495,0,-5.4409,-5.4468,-5.4497,-5.4531,-5.4548,-5.4603,-5.4634,-5.4621,-5.4655,-5.4692,-5.4736,-5.4789,-5.4829,-5.4919,-5.4924,-5.4971,-5.4956,-5.5033,-5.4963,-5.4964,-5.4952,-5.4947,-5.4951,-5.5045,-5.5047,-5.5049,-5.5051,0,-5.4588,-5.4584,-5.4631,-5.4679,-5.4717,-5.4753,-5.4786,-5.4815,-5.4805,-5.4844,-5.4901,-5.4933,-5.4996,-5.5047,-5.5091,-5.5104,-5.5075,-5.5073,-5.509,-5.5093,-5.509,-5.5088,-5.4865,-5.5067,-5.5065,-5.5064,-5.5063,-5.5063,-5.4716,-5.4765,-5.4793,-5.4846,-5.487,-5.4901,-5.4947,-5.4955,-5.5002,-5.5052,-5.5042,-5.5105,-5.5131,-5.5187,-5.5205,-5.5253,-5.5224,-5.525,-5.5256,-5.5261,-5.5267,-5.5087,-5.5261,-5.5261,-5.526,-5.526,-5.526,0,-5.4889,-5.4905,-5.4955,-5.5001,-5.5043,-5.5015,-5.5049,-5.5085,-5.5141,-5.5169,-5.521,-5.5273,-5.5323,-5.5333,-5.538,-5.5416,-5.5403,-5.5428,-5.5423,-5.5426,-5.5291,-5.527,-5.5437,-5.5437,-5.5437,-5.5437,-5.5437,-5.5437,-5.4984,-5.5065,-5.5064,-5.5156,-5.5171,-5.5233,-5.5254,-5.5282,-5.5304,-5.5376,-5.5418,-5.5425,-5.5445,-5.5493,-5.5537,-5.5538,-5.5555,-5.5584,-5.558,-5.5453,-5.5435,-5.5418,-5.5398,-5.5589,-5.5589,-5.571,-5.5711,-5.5712]},{"header":{"parameterUnit":"m.s-1","parameterCategory":1,"la1":30.2991,"la2":30.254,"lo1":-89.0895,"lo2":-89.0444,"dy":0.0017,"dx":0.0017,"nx":28,"ny":28,"refTime":"2023-09-03T21:00:00:Z","depth":0,"parameterNumber":3,"parameterNumberName":"V-component_of_WINDS"},"data":[0,0,0,0,0,0,0,0,0,0,0,0,0,0,0,0,0,0,0,0,0,0,0,0,0,0,0,0,0,0,0,0,0,0,0,0,0,0,0,0,0,0,0,0,0,0,0,0,0,0,0,0,0,0,0,0,0,0,3.2465,3.2465,0,3.2503,3.2503,3.2503,3.2432,3.2429,3.2427,3.2425,3.2461,3.2464,3.2467,0,0,0,0,0,0,0,0,0,0,0,0,0,3.2328,3.2331,3.2465,3.2465,3.2466,3.2502,3.2503,3.2503,3.2432,3.2429,3.2426,3.2424,3.2459,3.2463,3.2467,0,0,0,0,0,0,0,0,0,0,0,0,0,3.2379,3.2332,3.2465,3.2435,3.2432,3.2502,3.2503,3.2504,3.2433,3.2429,3.2426,3.2422,3.2458,3.2463,3.2467,3.2568,0,0,3.2482,3.2484,0,0,0,0,0,0,0,0,3.2376,3.2384,3.2438,3.2437,3.2434,3.2459,3.2468,3.2525,3.2434,3.2433,3.2425,3.2421,3.2463,3.2467,3.2482,3.2569,3.2571,3.2482,3.2485,3.2487,3.2489,0,0,0,0,0,0,0,3.2373,3.2382,3.2479,3.2439,3.2437,3.2418,3.2422,3.2478,3.2467,3.2432,3.2427,3.2433,3.2461,3.2477,3.2482,3.2571,3.2482,3.2486,3.2489,3.2491,3.2743,3.2746,0,0,0,0,0,0,3.2373,3.2379,3.2478,3.2481,3.2396,3.2424,3.2427,3.2455,3.2466,3.2464,3.2436,3.2429,3.2471,3.2476,3.2483,3.26,3.2487,3.2492,3.2494,3.2739,3.2744,3.2748,0,0,0,0,0,0,3.2371,3.2383,3.2477,3.2429,3.2439,3.243,3.2461,3.2457,3.2473,3.2469,3.2466,3.2455,3.2468,3.2476,3.2547,3.26,3.2494,3.2498,3.2734,3.274,3.2746,3.2836,0,0,0,0,0,0,3.2367,3.2382,3.2421,3.243,3.2442,3.2541,3.2464,3.246,3.2482,3.2474,3.2486,3.2484,3.2466,3.2541,3.2552,3.2605,3.2502,3.273,3.2737,3.2744,3.2828,3.2844,3.2857,0,0,0,0,0,3.2362,3.2444,3.2423,3.2435,3.249,3.2545,3.2551,3.2529,3.2487,3.2525,3.2522,3.2484,3.2593,3.2548,3.2561,3.2616,3.2726,3.2735,3.2743,3.2821,3.2841,3.2857,0,0,0,0,0,0,3.2439,3.2444,3.2421,3.2508,3.2527,3.2532,3.2579,3.2551,3.2581,3.2572,3.2543,3.2546,3.2622,3.2626,3.2576,3.2713,3.2652,3.2664,3.2707,3.2726,3.274,3.2736,3.2506,0,0,0,0,0,3.2466,3.2511,3.2513,3.259,3.26,3.2589,3.2612,3.2594,3.2611,3.2618,3.262,3.2638,3.2676,3.2701,3.2736,3.2829,3.283,3.2873,3.2888,3.29,3.2909,3.2958,3.2977,3.2776,3.2776,3.2776,0,0,3.2522,3.2531,3.2561,3.2605,3.2617,3.2663,3.2595,3.2647,3.268,3.2625,3.2692,3.2695,3.2713,3.2795,3.2831,3.2801,3.2966,3.2911,3.2921,3.2924,3.2969,3.2988,3.3005,3.2782,3.2781,3.278,0,0,3.2648,3.266,3.2724,3.2738,3.2758,3.275,3.2766,3.2777,3.2777,3.2844,3.2804,3.2843,3.291,3.2924,3.294,3.3073,3.3039,3.3086,3.3162,3.321,3.3226,3.3239,3.3286,3.3303,3.3096,3.3096,3.3096,0,3.2714,3.2783,3.2761,3.2816,3.2836,3.279,3.2855,3.287,3.29,3.2914,3.288,3.2963,3.2972,3.3057,3.309,3.3105,3.3121,3.3083,3.3225,3.3239,3.3252,3.3295,3.3313,3.3101,3.3101,3.31,3.31,0,3.2863,3.2912,3.2962,3.2993,3.302,3.3079,3.3065,3.3095,3.3075,3.3071,3.314,3.315,3.3186,3.3205,3.3186,3.3287,3.3268,3.323,3.3168,3.3277,3.3317,3.3334,3.3109,3.3107,3.3106,3.3104,0,0,3.3035,3.3055,3.3074,3.3088,3.3107,3.3144,3.3202,3.3238,3.3263,3.3286,3.3333,3.3392,3.3357,3.3376,3.3358,3.3401,3.3504,3.3358,3.3358,3.3383,3.3616,3.3642,3.3662,3.3483,3.3486,3.3489,3.3614,0,3.3158,3.3258,3.3241,3.3338,3.3382,3.334,3.339,3.3408,3.3406,3.3442,3.344,3.3481,3.3434,3.3445,3.3485,3.3483,3.355,3.3474,3.3525,3.3527,3.3519,3.3683,3.3711,3.3828,3.3629,3.3632,3.3634,0,3.3315,3.3345,3.3446,3.346,3.3477,3.3523,3.3555,3.3591,3.361,3.3606,3.3628,3.3602,3.3659,3.3599,3.3676,3.3625,3.3645,3.3648,3.3652,3.3653,3.3585,3.3688,3.3865,3.3882,3.3659,3.3657,3.3655,0,3.3428,3.3494,3.3563,3.3577,3.3594,3.3627,3.3636,3.3651,3.3674,3.3703,3.3717,3.3752,3.377,3.3798,3.3782,3.374,3.3862,3.3801,3.3859,3.3859,3.3884,3.3882,3.4066,3.3901,3.3901,3.3901,3.39,0,3.3566,3.3629,3.3614,3.3657,3.3726,3.3706,3.3776,3.3779,3.3794,3.3836,3.3802,3.3842,3.3821,3.3859,3.3847,3.3913,3.3922,3.3919,3.3915,3.3921,3.3921,3.3932,3.3922,3.3905,3.3904,3.3903,3.3903,0,3.3703,3.3696,3.3768,3.378,3.3784,3.3835,3.3844,3.3884,3.388,3.3934,3.3945,3.3939,3.3983,3.3971,3.4018,3.401,3.4093,3.4079,3.4086,3.4082,3.4141,3.4135,3.4335,3.436,3.4182,3.4184,3.4185,0,3.379,3.3838,3.3856,3.3882,3.3893,3.3936,3.396,3.3943,3.3969,3.3995,3.4031,3.4072,3.4103,3.4174,3.4174,3.421,3.4195,3.4263,3.42,3.4205,3.4194,3.4191,3.4195,3.4275,3.4277,3.4279,3.428,0,3.3946,3.394,3.3977,3.4013,3.4043,3.407,3.4094,3.4117,3.4101,3.4132,3.4177,3.4202,3.425,3.4291,3.4324,3.4332,3.4303,3.4301,3.4316,3.4321,3.4323,3.4321,3.4118,3.4295,3.4294,3.4293,3.4292,3.4291,3.4059,3.41,3.4119,3.4161,3.4177,3.4201,3.4238,3.4241,3.4278,3.4316,3.4304,3.4355,3.4373,3.4415,3.4427,3.4466,3.444,3.4462,3.4468,3.4473,3.448,3.4319,3.4472,3.4472,3.4472,3.4471,3.4471,0,3.4211,3.4222,3.4261,3.4296,3.4329,3.4302,3.4327,3.4356,3.4402,3.4422,3.4454,3.4505,3.4545,3.4549,3.4586,3.4616,3.4604,3.4626,3.4623,3.4625,3.4501,3.4484,3.4636,3.4635,3.4635,3.4635,3.4635,3.4635,3.4294,3.4361,3.4359,3.4434,3.4444,3.4494,3.4511,3.4532,3.4548,3.4607,3.464,3.4643,3.4656,3.4695,3.473,3.473,3.4744,3.4771,3.4766,3.465,3.4634,3.4618,3.4601,3.4775,3.4775,3.4886,3.4887,3.4888]}]]